Regional Weather Roundup
Issued by NWS Goodland, KS

Home | Current Version | Previous Version | Graphics & Text | Print | Product List | Glossary On
Versions: 1 2 3 4 5 6 7 8 9 10 11 12 13 14 15 16 17 18 19 20 21 22 23 24 25 26 27 28 29 30 31 32 33 34 35 36 37 38 39 40 41 42 43 44 45 46 47 48 49 50
000
ASUS43 KGLD 010459
RWRGLD

GOODLAND FORECAST AREA HOURLY WEATHER ROUNDUP
NATIONAL WEATHER SERVICE GOODLAND KS
1100 PM MDT SUN AUG 31 2014

...OFFICIAL OBSERVATIONS...

CITY           SKY/WX    TMP DP  RH WIND       PRES   REMARKS
GOODLAND KS    CLEAR     56  55  97 CALM      29.89R
HILL CITY KS   MOCLDY    66  63  90 NW3       29.77F
IMPERIAL NEB   MOCLDY    60  50  69 NW13      29.88R
MCCOOK NEB     PTCLDY    62  58  86 N10       29.84R
AKRON CO       MOCLDY    56  48  74 N8        29.98R
BURLINGTON CO  CLEAR     58  52  80 CALM      29.92R
LIMON CO       CLEAR     54  47  77 N8        29.99S
$$

...UNOFFICIAL OBSERVATIONS...

CITY           SKY/WX    TMP DP  RH WIND       PRES   REMARKS
COLBY KS       CLEAR     61  61 100 NW8       29.86R
GOVE KS          N/A     67  32  27 CALM        N/A
NORTON KS      CLEAR     61  54  77 W7        29.78S
SHARON SPRINGS   N/A     63  57  80 CALM        N/A
WAKEENEY KS      N/A     68  58  72 MISG        N/A
KIT CARSON CO    N/A     61  52  71 CALM        N/A
$$


USA.gov is the U.S. government's official web portal to all federal, state and local government web resources and services.